HI3R-13 Weather Reports


time (UTC)temp
C
wind
direction
speed
KPH
gust
KPH
rain 1hr
cm
rain 24hr
cm
rain mn
cm
humidity
%
barometer
mb
20260505032016 25 0.0 3.2 0.00 0.00 0.00 69 987.8
20260505031015 25 0.0 0.0 0.00 0.00 0.00 69 987.7
20260505030016 25 0.0 3.2 0.00 0.00 0.00 68 987.7
20260505025016 25 0.0 4.8 0.00 0.00 0.00 68 987.5
20260505024036 25 0.0 0.0 0.00 0.00 0.00 68 987.4
20260505023016 26 0.0 4.8 0.00 0.00 0.00 67 987.4
20260505022037 26 0.0 9.7 0.00 0.00 0.00 66 987.1
20260505021058 26 0.0 4.8 0.00 0.00 0.00 66 987.0
20260505020017 26 0.0 3.2 0.00 0.00 0.00 65 987.0
20260505015037 26 270 1.6 8.0 0.00 0.00 0.00 65 987.1
20260505014017 26 0.0 0.0 0.00 0.00 0.00 65 987.1
20260505013017 26 0.0 0.0 0.00 0.00 0.00 64 987.1
20260505012036 26 0.0 4.8 0.00 0.00 0.00 63 986.9
20260505011017 26 0.0 9.7 0.00 0.00 0.00 62 986.5
20260505010017 26 0.0 4.8 0.00 0.00 0.00 62 986.5
20260505005017 26 0.0 4.8 0.00 0.00 0.00 62 986.4
20260505004017 26 0.0 8.0 0.00 0.00 0.00 61 986.1
20260505003017 27 0.0 4.8 0.00 0.00 0.00 61 986.1
20260505002017 27 0.0 6.4 0.00 0.00 0.00 60 986.0
20260505001017 27 0.0 8.0 0.00 0.00 0.00 58 986.0
20260505000017 27 293 1.6 11.3 0.00 0.00 0.00 57 986.0
20260504235037 27 0.0 6.4 0.00 0.00 0.00 57 986.0
20260504234017 27 0.0 4.8 0.00 0.00 0.00 56 986.0
20260504233037 27 0.0 8.0 0.00 0.00 0.00 56 986.0
20260504232057 28 0.0 4.8 0.00 0.00 0.00 54 985.8
20260504231037 28 315 1.6 8.0 0.00 0.00 0.00 53 985.7
20260504230017 28 0.0 11.3 0.00 0.00 0.00 52 985.7
20260504225017 28 315 1.6 12.9 0.00 0.00 0.00 52 985.4
20260504224017 28 315 3.2 19.3 0.00 0.00 0.00 51 984.9
20260504223037 29 0 1.6 8.0 0.00 0.00 0.00 49 984.9
20260504222017 29 0 3.2 19.3 0.00 0.00 0.00 47 984.9
20260504221017 29 315 3.2 16.1 0.00 0.00 0.00 47 984.8
20260504220017 29 315 1.6 11.3 0.00 0.00 0.00 46 984.8
20260504215016 30 0 3.2 16.1 0.00 0.00 0.00 45 984.9
20260504214016 30 315 4.8 19.3 0.00 0.00 0.00 43 984.7
20260504213016 30 315 3.2 14.5 0.00 0.00 0.00 39 984.7
20260504212016 31 0 6.4 22.5 0.00 0.00 0.00 38 984.4
20260504211017 31 338 4.8 22.5 0.00 0.00 0.00 39 984.4
20260504210016 31 0 6.4 19.3 0.00 0.00 0.00 39 984.4
20260504205016 31 0 8.0 25.7 0.00 0.00 0.00 41 984.6
20260504204016 31 0 6.4 17.7 0.00 0.00 0.00 40 984.6
20260504203016 31 0 6.4 22.5 0.00 0.00 0.00 39 984.6
20260504202016 31 315 6.4 22.5 0.00 0.00 0.00 39 984.4
20260504201016 31 0 6.4 19.3 0.00 0.00 0.00 40 984.6
20260504200016 31 0 9.7 27.4 0.00 0.00 0.00 41 984.6
20260504195016 31 0 6.4 24.1 0.00 0.00 0.00 44 984.8
20260504194016 31 0 6.4 16.1 0.00 0.00 0.00 44 984.9
20260504193036 31 0 9.7 22.5 0.00 0.00 0.00 45 984.9
20260504192016 32 0 8.0 22.5 0.00 0.00 0.00 45 984.8
20260504191036 31 338 4.8 17.7 0.00 0.00 0.00 48 984.9
20260504190016 32 338 8.0 24.1 0.00 0.00 0.00 45 984.9
20260504185016 32 0 6.4 20.9 0.00 0.00 0.00 49 984.8
20260504184016 31 0 6.4 20.9 0.00 0.00 0.00 48 984.9
20260504183016 32 0 9.7 22.5 0.00 0.00 0.00 48 984.9
20260504182016 31 0 6.4 20.9 0.00 0.00 0.00 48 985.0
20260504181016 32 0 6.4 20.9 0.00 0.00 0.00 47 985.2
20260504180016 31 0 8.0 32.2 0.00 0.00 0.00 47 985.2
20260504175016 31 338 8.0 27.4 0.00 0.00 0.00 49 985.4
20260504174016 31 0 9.7 27.4 0.00 0.00 0.00 48 985.8
20260504173016 32 0 6.4 20.9 0.00 0.00 0.00 46 985.8
20260504172016 31 0 6.4 19.3 0.00 0.00 0.00 49 985.9
20260504171035 31 338 8.0 22.5 0.00 0.00 0.00 47 986.0
20260504151017 29 0.0 0.0 0.00 0.00 0.00 60 987.1
20260504141057 28 0.0 0.0 0.00 0.00 0.00 62 987.3
20260504081016 23 0.0 0.0 0.00 0.00 0.00 85 986.4
20260504050017 24 0.0 0.0 0.00 0.00 0.00 80 987.4
20260504045017 24 0.0 0.0 0.00 0.00 0.00 80 987.5
20260504044017 24 0.0 0.0 0.00 0.00 0.00 79 987.7
20260504043017 24 0.0 0.0 0.00 0.00 0.00 79 987.7
20260504042037 24 0.0 0.0 0.00 0.00 0.00 79 988.0
20260504041017 24 0.0 0.0 0.00 0.00 0.00 78 988.2
20260504040017 24 0.0 0.0 0.00 0.00 0.00 78 988.2
20260504035037 24 0.0 0.0 0.00 0.00 0.00 77 988.4
20260504034016 25 0.0 0.0 0.00 0.00 0.00 77 988.1
20260504033016 25 0.0 0.0 0.00 0.00 0.00 76 988.1